Location: Auttagershofen
(48.1940°N, 10.0237°E)
Time: 23:04:10
(UTC+00:00)

Lacrosse 5 rocket - Pass Details

Date: 20 April 2026
Orbit: 390 x 471 km, 57.0° (Epoch: 19 May)

Event Time Altitude Azimuth Distance (km) Brightness Sun altitude
Rises 21:40:09 0° 308° (NW) 2,289 5.5 -26.2°
Reaches altitude 10° 21:42:19 10° 317° (NW) 1,432 4.4 -26.3°
Enters shadow 21:43:47 22° 334° (NNW) 916 3.2 -26.4°
